When you browse on this site, cookies collect data to enhance your experience and personalize the content and advertising you see.
Visit our Privacy Policy to learn more. By continuing to use the site, you agree to this use of cookies and data.
  • In Schweiz
  • Länderverzeichnis
  • Für 7 Tage
  • Wassertemperatur
  • Satellitenkarten
  • Wetterkarte
  • Widgets
  • user-avatar
    Anmelden

    Stündliche Wetter Morpeth

    Heute, 23 Januar, Mittwoch

    Zeit Temperatur Niederschläge Wind Luftdruck Luftfeuchtigkeit
    00:00 -2°C° 0 mm 3 m/S 742 mmHg 83%
    01:00 -2°C° 0 mm 3 m/S 742 mmHg 83%
    02:00 -2°C° 0 mm 3 m/S 742 mmHg 82%
    03:00 -2°C° 0 mm 3 m/S 742 mmHg 82%
    04:00 -3°C° 0 mm 4 m/S 743 mmHg 81%
    05:00 -3°C° 0 mm 4 m/S 743 mmHg 81%
    06:00 -3°C° 0 mm 4 m/S 744 mmHg 81%
    07:00 -3°C° 0 mm 4 m/S 744 mmHg 79%
    08:00 -3°C° 0 mm 4 m/S 745 mmHg 78%
    09:00 -3°C° 0 mm 4 m/S 745 mmHg 76%
    10:00 -1°C° 0 mm 3 m/S 746 mmHg 71%
    11:00 0°C° 0 mm 3 m/S 746 mmHg 67%
    12:00 +1°C° 0 mm 3 m/S 746 mmHg 62%
    13:00 +1°C° 0 mm 3 m/S 747 mmHg 63%
    14:00 +2°C° 0 mm 2 m/S 747 mmHg 64%
    15:00 +3°C° 0 mm 2 m/S 747 mmHg 64%
    16:00 +2°C° 0 mm 2 m/S 747 mmHg 69%
    17:00 +1°C° 0 mm 2 m/S 748 mmHg 73%
    18:00 -1°C° 0 mm 3 m/S 748 mmHg 78%
    19:00 -1°C° 0 mm 3 m/S 748 mmHg 77%
    20:00 0°C° 0 mm 3 m/S 748 mmHg 76%
    21:00 0°C° 0 mm 3 m/S 748 mmHg 75%
    22:00 0°C° 0.2 mm 3 m/S 749 mmHg 78%
    23:00 +1°C° 0.2 mm 3 m/S 749 mmHg 81%

    Morgen, 24 Januar, Donnerstag

    Zeit Temperatur Niederschläge Wind Luftdruck Luftfeuchtigkeit
    00:00 +1°C° 0.2 mm 3 m/S 749 mmHg 84%
    01:00 0°C° 0.2 mm 4 m/S 749 mmHg 86%
    02:00 0°C° 0.2 mm 4 m/S 749 mmHg 89%
    03:00 0°C° 0.2 mm 4 m/S 749 mmHg 91%
    04:00 0°C° 0 mm 4 m/S 749 mmHg 90%
    05:00 0°C° 0 mm 4 m/S 749 mmHg 90%
    06:00 0°C° 0 mm 4 m/S 749 mmHg 90%
    07:00 0°C° 0 mm 4 m/S 749 mmHg 90%
    08:00 -1°C° 0 mm 4 m/S 750 mmHg 89%
    09:00 -1°C° 0 mm 4 m/S 750 mmHg 89%
    10:00 +1°C° 0 mm 3 m/S 751 mmHg 85%
    11:00 +2°C° 0 mm 3 m/S 751 mmHg 80%
    12:00 +3°C° 0 mm 3 m/S 751 mmHg 76%
    13:00 +3°C° 0 mm 3 m/S 752 mmHg 76%
    14:00 +3°C° 0 mm 2 m/S 752 mmHg 76%
    15:00 +3°C° 0 mm 2 m/S 752 mmHg 77%
    16:00 +3°C° 0 mm 2 m/S 753 mmHg 79%
    17:00 +2°C° 0 mm 2 m/S 753 mmHg 81%
    18:00 +2°C° 0 mm 1 m/S 753 mmHg 83%
    19:00 +2°C° 0 mm 1 m/S 754 mmHg 83%
    20:00 +2°C° 0 mm 1 m/S 754 mmHg 83%
    21:00 +1°C° 0 mm 1 m/S 754 mmHg 84%
    22:00 +1°C° 0 mm 1 m/S 755 mmHg 83%
    23:00 +1°C° 0 mm 1 m/S 755 mmHg 82%

    übermorgen, 25 Januar, Freitag

    Zeit Temperatur Niederschläge Wind Luftdruck Luftfeuchtigkeit
    00:00 +1°C° 0 mm 1 m/S 755 mmHg 81%
    01:00 +1°C° 0 mm 2 m/S 755 mmHg 80%
    02:00 +1°C° 0 mm 2 m/S 755 mmHg 78%
    03:00 +2°C° 0 mm 2 m/S 755 mmHg 76%
    04:00 +1°C° 0.2 mm 3 m/S 754 mmHg 79%
    05:00 +1°C° 0.2 mm 3 m/S 754 mmHg 81%
    06:00 0°C° 0.2 mm 4 m/S 754 mmHg 84%
    07:00 +1°C° 0.1 mm 4 m/S 753 mmHg 87%
    08:00 +3°C° 0.1 mm 4 m/S 753 mmHg 90%
    09:00 +3°C° 0.1 mm 5 m/S 753 mmHg 93%
    10:00 +5°C° 0.1 mm 5 m/S 753 mmHg 91%
    11:00 +5°C° 0.1 mm 6 m/S 753 mmHg 90%
    12:00 +6°C° 0.1 mm 7 m/S 753 mmHg 89%
    13:00 +6°C° 0 mm 7 m/S 753 mmHg 89%
    14:00 +8°C° 0 mm 7 m/S 752 mmHg 88%
    15:00 +8°C° 0 mm 7 m/S 752 mmHg 88%
    16:00 +8°C° 0.1 mm 7 m/S 752 mmHg 88%
    17:00 +7°C° 0.1 mm 8 m/S 752 mmHg 89%
    18:00 +6°C° 0.1 mm 8 m/S 751 mmHg 89%
    19:00 +7°C° 0 mm 8 m/S 751 mmHg 88%
    20:00 +7°C° 0 mm 9 m/S 750 mmHg 88%
    21:00 +7°C° 0 mm 9 m/S 750 mmHg 87%
    22:00 +7°C° 0 mm 9 m/S 749 mmHg 87%
    23:00 +7°C° 0 mm 8 m/S 748 mmHg 87%

    26 Januar, Samstag

    Zeit Temperatur Niederschläge Wind Luftdruck Luftfeuchtigkeit
    00:00 +9°C° 0 mm 8 m/S 748 mmHg 87%
    01:00 +9°C° 0 mm 8 m/S 747 mmHg 86%
    02:00 +8°C° 0 mm 9 m/S 746 mmHg 84%
    03:00 +8°C° 0 mm 9 m/S 745 mmHg 82%
    04:00 +7°C° 0.3 mm 9 m/S 744 mmHg 83%
    05:00 +7°C° 0.3 mm 10 m/S 743 mmHg 84%
    06:00 +7°C° 0.3 mm 10 m/S 742 mmHg 85%
    07:00 +6°C° 1.4 mm 9 m/S 742 mmHg 83%
    08:00 +4°C° 1.4 mm 8 m/S 742 mmHg 82%
    09:00 +3°C° 1.4 mm 7 m/S 742 mmHg 80%
    10:00 +2°C° 0 mm 8 m/S 743 mmHg 76%
    11:00 +2°C° 0 mm 8 m/S 743 mmHg 73%
    12:00 +3°C° 0 mm 9 m/S 744 mmHg 69%
    13:00 +2°C° 0.1 mm 9 m/S 744 mmHg 69%
    14:00 +2°C° 0.1 mm 9 m/S 744 mmHg 68%
    15:00 +2°C° 0.1 mm 9 m/S 745 mmHg 68%
    16:00 +1°C° 0.1 mm 9 m/S 745 mmHg 67%
    17:00 0°C° 0.1 mm 9 m/S 745 mmHg 67%
    18:00 -1°C° 0.1 mm 9 m/S 746 mmHg 66%
    19:00 -2°C° 0 mm 10 m/S 746 mmHg 66%
    20:00 -2°C° 0 mm 10 m/S 747 mmHg 66%
    21:00 -3°C° 0 mm 10 m/S 747 mmHg 66%
    22:00 -3°C° 0 mm 11 m/S 747 mmHg 65%
    23:00 -3°C° 0 mm 11 m/S 747 mmHg 64%

    27 Januar, Sonntag

    Zeit Temperatur Niederschläge Wind Luftdruck Luftfeuchtigkeit
    00:00 -2°C° 0 mm 11 m/S 747 mmHg 63%
    01:00 -2°C° 0 mm 12 m/S 747 mmHg 62%
    02:00 -2°C° 0 mm 12 m/S 746 mmHg 61%
    03:00 -2°C° 0 mm 13 m/S 746 mmHg 59%
    04:00 -2°C° 0.1 mm 14 m/S 746 mmHg 61%
    05:00 -1°C° 0.1 mm 14 m/S 746 mmHg 62%
    06:00 -1°C° 0.1 mm 15 m/S 746 mmHg 64%
    07:00 -1°C° 0.4 mm 13 m/S 747 mmHg 68%
    08:00 -1°C° 0.4 mm 12 m/S 748 mmHg 73%
    09:00 0°C° 0.4 mm 10 m/S 749 mmHg 78%
    10:00 +1°C° 0.5 mm 10 m/S 750 mmHg 79%
    11:00 +1°C° 0.5 mm 9 m/S 750 mmHg 81%
    12:00 +1°C° 0.5 mm 8 m/S 751 mmHg 82%
    13:00 +1°C° 0.4 mm 9 m/S 751 mmHg 78%
    14:00 +1°C° 0.4 mm 9 m/S 752 mmHg 75%
    15:00 0°C° 0.4 mm 10 m/S 752 mmHg 71%
    16:00 -2°C° 0 mm 10 m/S 752 mmHg 71%
    17:00 -1°C° 0 mm 9 m/S 753 mmHg 71%
    18:00 -3°C° 0 mm 9 m/S 753 mmHg 71%
    19:00 -3°C° 0 mm 9 m/S 753 mmHg 72%
    20:00 -3°C° 0 mm 9 m/S 754 mmHg 73%
    21:00 -4°C° 0 mm 8 m/S 754 mmHg 74%
    22:00 -4°C° 0 mm 8 m/S 754 mmHg 75%
    23:00 -4°C° 0 mm 8 m/S 754 mmHg 75%

    28 Januar, Montag

    Zeit Temperatur Niederschläge Wind Luftdruck Luftfeuchtigkeit
    00:00 -4°C° 0 mm 8 m/S 754 mmHg 76%
    01:00 -4°C° 0 mm 8 m/S 754 mmHg 75%
    02:00 -4°C° 0 mm 8 m/S 754 mmHg 75%
    03:00 -4°C° 0 mm 8 m/S 754 mmHg 75%
    04:00 -4°C° 0 mm 8 m/S 754 mmHg 76%
    05:00 -2°C° 0 mm 8 m/S 754 mmHg 76%
    06:00 -2°C° 0 mm 8 m/S 755 mmHg 77%
    07:00 -2°C° 0 mm 8 m/S 755 mmHg 77%
    08:00 -2°C° 0 mm 7 m/S 755 mmHg 78%
    09:00 -2°C° 0 mm 7 m/S 756 mmHg 78%
    10:00 -1°C° 0 mm 7 m/S 756 mmHg 77%
    11:00 -1°C° 0 mm 6 m/S 756 mmHg 76%
    12:00 +1°C° 0 mm 6 m/S 756 mmHg 75%
    13:00 +1°C° 0 mm 6 m/S 756 mmHg 75%
    14:00 +1°C° 0 mm 5 m/S 757 mmHg 76%
    15:00 0°C° 0 mm 5 m/S 757 mmHg 76%
    16:00 0°C° 0 mm 4 m/S 757 mmHg 77%
    17:00 -1°C° 0 mm 4 m/S 757 mmHg 78%
    18:00 -1°C° 0 mm 3 m/S 757 mmHg 79%
    19:00 -1°C° 0 mm 3 m/S 757 mmHg 78%
    20:00 -1°C° 0 mm 3 m/S 757 mmHg 77%
    21:00 -2°C° 0 mm 3 m/S 757 mmHg 76%
    22:00 -2°C° 0 mm 3 m/S 757 mmHg 76%
    23:00 -2°C° 0 mm 3 m/S 757 mmHg 75%
    Mehr zeigen